Oakland, MD

11:29 PM EST on February 19, 2018 (GMT -0500)
Oakland

Weather History for K2G4 - October, 2013

Change the Weather History Date:

Thursday, October 31, 2013

  Actual Average (KMGW) Record (KMGW)
Temperature  
Mean Temperature 56 °F -  
Max Temperature 62 °F 63 °F 80 °F (1896)
Min Temperature 51 °F 41 °F 21 °F (1975)
Degree Days  
Heating Degree Days 8    
Growing Degree Days 6 (Base 50)    
Moisture  
Dew Point 52 °F    
Average Humidity 87    
Maximum Humidity 100    
Minimum Humidity 52    
Precipitation  
Precipitation 0.00 in - - ()
Sea Level Pressure  
Sea Level Pressure 29.98 in    
Wind  
Wind Speed 10 mph (SSW)    
Max Wind Speed 20 mph    
Max Gust Speed 28 mph    
Visibility 9 miles    
Events      
Averages and records for this station are not official NWS values.
T = Trace of Precipitation, MM = Missing Value Source: NWS Daily Summary

Daily Weather History Graph

Daily Weather History Graph

Search for Another Location

Airport or City:

Trip Planner

Search our weather history database for the weather conditions in past years. The results will help you decide how hot, cold, wet, or windy it might be!

Date:

Astronomy

Oct. 31, 2013 Rise Set
Actual Time 7:44 AM EDT 6:16 PM EDT
Civil Twilight 7:16 AM EDT 6:44 PM EDT
Nautical Twilight 6:45 AM EDT 7:16 PM EDT
Astronomical Twilight 6:13 AM EDT 7:47 PM EDT
Moon 4:33 AM EDT (10/31) 4:33 PM EDT (10/31)
Length of Visible Light 11h 27m
Length of Day
10h 31m
Waning Crescent, 10% of the Moon is Illuminated
Oct 31
Waning Crescent
Nov 3
New
Nov 10
First Quarter
Nov 17
Full
Nov 25
Last Quarter

Hourly Weather History & Observations

Time (EDT) Temp. Dew Point Humidity Pressure Visibility Wind Dir Wind Speed Gust Speed Precip Events Conditions
12:10 AM 53.6 °F 53.6 °F 100% 30.16 in 3.0 mi South 9.2 mph - N/A   Overcast
12:30 AM 53.6 °F 53.6 °F 100% 30.17 in 3.0 mi SSW 6.9 mph - N/A   Overcast
12:50 AM 51.8 °F 51.8 °F 100% 30.15 in 5.0 mi South 6.9 mph - N/A   Mostly Cloudy
1:10 AM 51.8 °F 51.8 °F 100% 30.15 in 3.0 mi South 8.1 mph - N/A   Overcast
1:30 AM 51.8 °F 51.8 °F 100% 30.16 in 1.5 mi South 8.1 mph - N/A   Overcast
1:50 AM 51.8 °F 51.8 °F 100% 30.15 in 2.0 mi South 8.1 mph - N/A   Mostly Cloudy
2:10 AM 53.6 °F 53.6 °F 100% 30.15 in 7.0 mi South 6.9 mph - N/A   Mostly Cloudy
2:30 AM 53.6 °F 53.6 °F 100% 30.13 in 7.0 mi South 8.1 mph - N/A   Overcast
2:50 AM 51.8 °F 51.8 °F 100% 30.13 in 7.0 mi South 8.1 mph - N/A   Mostly Cloudy
3:10 AM 53.6 °F 53.6 °F 100% 30.13 in 5.0 mi South 9.2 mph - N/A   Overcast
3:30 AM 53.6 °F 53.6 °F 100% 30.12 in 7.0 mi South 8.1 mph - N/A   Overcast
3:50 AM 53.6 °F 53.6 °F 100% 30.12 in 10.0 mi South 8.1 mph - N/A   Overcast
4:10 AM 53.6 °F 53.6 °F 100% 30.12 in 10.0 mi South 8.1 mph - N/A   Overcast
4:30 AM 53.6 °F 53.6 °F 100% 30.10 in 10.0 mi South 8.1 mph - N/A   Overcast
4:50 AM 53.6 °F 53.6 °F 100% 30.09 in 10.0 mi South 10.4 mph - N/A   Mostly Cloudy
5:10 AM 53.6 °F 53.6 °F 100% 30.10 in 10.0 mi SSW 10.4 mph - N/A   Mostly Cloudy
5:30 AM 53.6 °F 53.6 °F 100% 30.10 in 10.0 mi SSW 10.4 mph - N/A   Overcast
5:50 AM 55.4 °F 55.4 °F 100% 30.10 in 10.0 mi SSW 11.5 mph - N/A   Overcast
6:10 AM 55.4 °F 55.4 °F 100% 30.10 in 10.0 mi SSW 10.4 mph - N/A   Overcast
6:30 AM 55.4 °F 55.4 °F 100% 30.10 in 10.0 mi SSW 10.4 mph - N/A   Overcast
6:50 AM 55.4 °F 55.4 °F 100% 30.10 in 10.0 mi SSW 11.5 mph - N/A   Overcast
7:10 AM 55.4 °F 55.4 °F 100% 30.08 in 10.0 mi SSW 10.4 mph - N/A   Mostly Cloudy
7:30 AM 55.4 °F 55.4 °F 100% 30.08 in 10.0 mi SSW 10.4 mph 17.3 mph N/A   Scattered Clouds
7:50 AM 55.4 °F 55.4 °F 100% 30.08 in 10.0 mi SSW 9.2 mph - N/A   Scattered Clouds
8:10 AM 55.4 °F 55.4 °F 100% 30.09 in 10.0 mi SSW 10.4 mph - N/A   Scattered Clouds
8:30 AM 55.4 °F 53.6 °F 94% 30.09 in 10.0 mi SSW 9.2 mph - N/A   Scattered Clouds
8:50 AM 57.2 °F 53.6 °F 88% 30.10 in 10.0 mi SSW 8.1 mph - N/A   Scattered Clouds
9:10 AM 57.2 °F 51.8 °F 82% 30.09 in 10.0 mi SSW 10.4 mph - N/A   Scattered Clouds
9:30 AM 57.2 °F 51.8 °F 82% 30.08 in 10.0 mi SSW 9.2 mph - N/A   Clear
9:50 AM 59.0 °F 51.8 °F 77% 30.07 in 10.0 mi SSW 9.2 mph - N/A   Clear
10:10 AM 59.0 °F 51.8 °F 77% 30.06 in 10.0 mi SSW 9.2 mph - N/A   Clear
10:30 AM 59.0 °F 51.8 °F 77% 30.05 in 10.0 mi SSW 10.4 mph - N/A   Scattered Clouds
10:50 AM 59.0 °F 51.8 °F 77% 30.05 in 10.0 mi SSW 9.2 mph - N/A   Mostly Cloudy
11:10 AM 59.0 °F 51.8 °F 77% 30.04 in 10.0 mi SSW 8.1 mph - N/A   Mostly Cloudy
11:30 AM 59.0 °F 51.8 °F 77% 30.02 in 10.0 mi SSW 8.1 mph - N/A   Mostly Cloudy
11:50 AM 60.8 °F 51.8 °F 72% 30.02 in 10.0 mi SSW 9.2 mph - N/A   Mostly Cloudy
12:10 PM 60.8 °F 51.8 °F 72% 30.01 in 10.0 mi South 8.1 mph - N/A   Mostly Cloudy
12:30 PM 60.8 °F 51.8 °F 72% 30.00 in 10.0 mi SSW 8.1 mph - N/A   Mostly Cloudy
12:50 PM 60.8 °F 50.0 °F 68% 29.99 in 10.0 mi SSW 9.2 mph 16.1 mph N/A   Scattered Clouds
1:10 PM 60.8 °F 50.0 °F 68% 29.97 in 10.0 mi South 9.2 mph - N/A   Scattered Clouds
1:30 PM 60.8 °F 50.0 °F 68% 29.96 in 10.0 mi South 8.1 mph - N/A   Mostly Cloudy
1:50 PM 60.8 °F 50.0 °F 68% 29.95 in 10.0 mi South 10.4 mph - N/A   Mostly Cloudy
2:10 PM 62.6 °F 48.2 °F 59% 29.93 in 10.0 mi SSW 6.9 mph - N/A   Scattered Clouds
2:30 PM 62.6 °F 46.4 °F 55% 29.91 in 10.0 mi SSW 12.7 mph 16.1 mph N/A   Scattered Clouds
2:50 PM 62.6 °F 46.4 °F 55% 29.90 in 10.0 mi South 10.4 mph 16.1 mph N/A   Mostly Cloudy
3:10 PM 62.6 °F 46.4 °F 55% 29.89 in 10.0 mi South 8.1 mph - N/A   Mostly Cloudy
3:30 PM 60.8 °F 46.4 °F 59% 29.89 in 10.0 mi South 10.4 mph 16.1 mph N/A   Overcast
3:50 PM 60.8 °F 44.6 °F 55% 29.89 in 10.0 mi South 10.4 mph 17.3 mph N/A   Overcast
4:10 PM 60.8 °F 44.6 °F 55% 29.89 in 10.0 mi SSW 12.7 mph 17.3 mph N/A   Overcast
4:30 PM 60.8 °F 44.6 °F 55% 29.89 in 10.0 mi SSW 8.1 mph - N/A   Mostly Cloudy
4:50 PM 60.8 °F 44.6 °F 55% 29.88 in 10.0 mi SSW 5.8 mph - N/A   Mostly Cloudy
5:10 PM 60.8 °F 42.8 °F 52% 29.88 in 10.0 mi SSW 13.8 mph 18.4 mph N/A   Mostly Cloudy
5:30 PM 60.8 °F 42.8 °F 52% 29.90 in 10.0 mi SW 13.8 mph 27.6 mph N/A   Overcast
5:50 PM 57.2 °F 46.4 °F 67% 29.91 in 10.0 mi WSW 8.1 mph 20.7 mph N/A   Overcast
6:10 PM 53.6 °F 50.0 °F 88% 29.90 in 5.0 mi SW 9.2 mph - N/A   Haze
6:30 PM 51.8 °F 51.8 °F 100% 29.89 in 5.0 mi South 13.8 mph 19.6 mph N/A   Overcast
6:50 PM 51.8 °F 51.8 °F 100% 29.85 in 10.0 mi South 13.8 mph 19.6 mph N/A   Overcast
7:10 PM 51.8 °F 51.8 °F 100% 29.84 in 10.0 mi South 11.5 mph 18.4 mph N/A   Overcast
7:30 PM 51.8 °F 51.8 °F 100% 29.84 in 10.0 mi South 13.8 mph - N/A   Overcast
7:50 PM 51.8 °F 51.8 °F 100% 29.83 in 10.0 mi South 15.0 mph 21.9 mph N/A   Overcast
8:10 PM 53.6 °F 53.6 °F 100% 29.83 in 10.0 mi South 16.1 mph 21.9 mph N/A   Overcast
8:30 PM 53.6 °F 53.6 °F 100% 29.81 in 10.0 mi South 15.0 mph 20.7 mph N/A   Overcast
8:50 PM 53.6 °F 53.6 °F 100% 29.80 in 10.0 mi South 13.8 mph 25.3 mph N/A   Overcast
9:10 PM 53.6 °F 53.6 °F 100% 29.78 in 10.0 mi South 13.8 mph 23.0 mph N/A   Overcast
9:30 PM 53.6 °F 53.6 °F 100% 29.77 in 10.0 mi SSE 15.0 mph 26.5 mph N/A   Overcast
9:50 PM 51.8 °F 51.8 °F 100% 29.76 in 7.0 mi South 15.0 mph 26.5 mph N/A   Overcast
10:10 PM 53.6 °F 53.6 °F 100% 29.75 in 10.0 mi South 17.3 mph 24.2 mph N/A   Overcast
10:30 PM 53.6 °F 53.6 °F 100% 29.73 in 10.0 mi South 17.3 mph 25.3 mph N/A   Overcast
10:50 PM 53.6 °F 53.6 °F 100% 29.71 in 10.0 mi South 16.1 mph 23.0 mph N/A   Overcast
11:10 PM 53.6 °F 53.6 °F 100% 29.70 in 10.0 mi South 17.3 mph 23.0 mph N/A   Overcast
11:30 PM 55.4 °F 53.6 °F 94% 29.68 in 10.0 mi South 19.6 mph 27.6 mph N/A   Overcast
11:50 PM 55.4 °F 53.6 °F 94% 29.67 in 10.0 mi South 17.3 mph 25.3 mph N/A   Overcast